FW4339 Weather Reports


Display with metric or nautical units.
time (UTC)temp
F
wind
direction
speed
MPH
gust
MPH
rain 1hr
in
rain 24hr
in
rain mn
in
humidity
%
barometer
mb
20260505223113 61 0.0 0.0 0.00 0.00 0.00 67 1014.2
20260505221603 61 0.0 0.0 0.00 0.00 0.00 66 1014.2
20260505220059 62 0.0 0.0 0.00 0.00 0.00 64 1014.2
20260505214602 62 0.0 0.0 0.00 0.00 0.00 62 1014.3
20260505213055 63 0.0 0.0 0.00 0.00 0.00 59 1014.2
20260505211622 63 0.0 0.0 0.00 0.00 0.00 55 1014.3
20260505210056 64 0.0 0.0 0.00 0.00 0.00 52 1014.3
20260505204556 64 0.0 0.0 0.00 0.00 0.00 49 1014.3
20260505203118 64 0.0 0.0 0.00 0.00 0.00 49 1014.5
20260505201556 64 0.0 0.0 0.00 0.00 0.00 49 1014.6
20260505200055 64 0.0 0.0 0.00 0.00 0.00 51 1014.5
20260505194555 63 0.0 0.0 0.00 0.00 0.00 54 1014.5
20260505193054 63 0.0 0.0 0.00 0.00 0.00 55 1014.5
20260505191557 64 0.0 0.0 0.00 0.00 0.00 53 1014.6
20260505190056 63 0.0 0.0 0.00 0.00 0.00 54 1014.6
20260505184555 64 0.0 0.0 0.00 0.00 0.00 56 1014.4
20260505183057 65 0.0 0.0 0.00 0.00 0.00 50 1014.1
20260505181549 65 0.0 0.0 0.00 0.00 0.00 50 1014.1
20260505180055 65 0.0 0.0 0.00 0.00 0.00 54 1014.2
20260505174548 65 0.0 0.0 0.00 0.00 0.00 56 1014.1
20260505173049 66 0.0 0.0 0.00 0.00 0.00 53 1013.9
20260505171548 66 0.0 0.0 0.00 0.00 0.00 53 1013.9
20260505170048 66 0.0 0.0 0.00 0.00 0.00 52 1013.8
20260505164547 67 0.0 0.0 0.00 0.00 0.00 53 1013.8
20260505163047 67 0.0 0.0 0.00 0.00 0.00 53 1013.9
20260505161546 68 0.0 0.0 0.00 0.00 0.00 53 1013.9
20260505153050 70 0.0 0.0 0.00 0.00 0.00 41 1014.0
20260505151547 70 0.0 0.0 0.00 0.00 0.00 40 1013.9
20260505124540 83 0.0 0.0 0.00 0.00 0.00 26 1014.0
20260505123039 82 0.0 0.0 0.00 0.00 0.00 26 1013.9
20260505121640 80 0.0 0.0 0.00 0.00 0.00 27 1014.0
20260505120038 79 0.0 0.0 0.00 0.00 0.00 29 1014.2
20260505114538 82 0.0 0.0 0.00 0.00 0.00 27 1014.2
20260505113041 83 0.0 0.0 0.00 0.00 0.00 26 1014.2
20260505111542 82 0.0 0.0 0.00 0.00 0.00 26 1014.3
20260505101529 74 0.0 0.0 0.00 0.00 0.00 35 1014.5
20260505100017 73 0.0 0.0 0.00 0.00 0.00 35 1014.6
20260505094514 74 0.0 0.0 0.00 0.00 0.00 34 1014.9
20260505093012 76 0.0 0.0 0.00 0.00 0.00 31 1015.0
20260505091511 75 0.0 0.0 0.00 0.00 0.00 32 1015.1
20260505090011 74 0.0 0.0 0.00 0.00 0.00 33 1015.2
20260505084523 74 0.0 0.0 0.00 0.00 0.00 35 1015.2
20260505083002 74 0.0 0.0 0.00 0.00 0.00 39 1015.3
20260505081601 73 0.0 0.0 0.00 0.00 0.00 40 1015.4
20260505080057 72 0.0 0.0 0.00 0.00 0.00 40 1015.4
20260505074553 71 0.0 0.0 0.00 0.00 0.00 43 1015.4
20260505073051 69 0.0 0.0 0.00 0.00 0.00 46 1015.5
20260505071546 68 0.0 0.0 0.00 0.00 0.00 48 1015.6
20260505070058 66 0.0 0.0 0.00 0.00 0.00 52 1015.5
20260505064538 65 0.0 0.0 0.00 0.00 0.00 53 1015.4
20260505063034 63 0.0 0.0 0.00 0.00 0.00 56 1015.6
20260505061542 62 0.0 0.0 0.00 0.00 0.00 59 1015.5
20260505060025 60 0.0 0.0 0.00 0.00 0.00 62 1015.4
20260505054526 59 0.0 0.0 0.00 0.00 0.00 64 1015.6
20260505053022 57 0.0 0.0 0.00 0.00 0.00 65 1015.6
20260505051551 56 0.0 0.0 0.00 0.00 0.00 64 1015.5
20260505041534 53 0.0 0.0 0.00 0.00 0.00 61 1015.3
20260505040040 53 0.0 0.0 0.00 0.00 0.00 60 1015.1
20260505034536 53 0.0 0.0 0.00 0.00 0.00 59 1015.1
20260505033027 53 0.0 0.0 0.00 0.00 0.00 59 1015.0
20260505031527 53 0.0 0.0 0.00 0.00 0.00 60 1015.0
20260505030026 53 0.0 0.0 0.00 0.00 0.00 61 1015.1
20260505024525 53 0.0 0.0 0.00 0.00 0.00 62 1015.1
20260505023025 53 0.0 0.0 0.00 0.00 0.00 62 1015.1
20260505021524 53 0.0 0.0 0.00 0.00 0.00 61 1015.1
20260505020035 53 0.0 0.0 0.00 0.00 0.00 62 1015.2
20260505014523 53 0.0 0.0 0.00 0.00 0.00 60 1015.3
20260505013025 54 0.0 0.0 0.00 0.00 0.00 60 1015.3
20260505011523 54 0.0 0.0 0.00 0.00 0.00 59 1015.3
20260505010024 54 0.0 0.0 0.00 0.00 0.00 59 1015.3
20260505004523 53 0.0 0.0 0.00 0.00 0.00 59 1015.4
20260505003021 53 0.0 0.0 0.00 0.00 0.00 62 1015.3
20260505001519 54 0.0 0.0 0.00 0.00 0.00 58 1015.4
20260505000022 54 0.0 0.0 0.00 0.00 0.00 56 1015.3
20260504234515 55 0.0 0.0 0.00 0.00 0.00 55 1015.5
20260504233013 55 0.0 0.0 0.00 0.00 0.00 53 1015.6
20260504231512 54 0.0 0.0 0.00 0.00 0.00 53 1015.7
20260504230010 54 0.0 0.0 0.00 0.00 0.00 56 1015.8
20260504224511 54 0.0 0.0 0.00 0.00 0.00 56 1016.1